TimeHST,TemperatureF,Dew PointF,Humidity,Sea Level PressureIn,VisibilityMPH,Wind Direction,Wind SpeedMPH,Gust SpeedMPH,PrecipitationIn,Events,Conditions,WindDirDegrees,DateUTC
12:53 AM,73.9,64.9,73,30.05,10.0,SE,10.4,-,N/A,,Scattered Clouds,130,2013-03-22 10:53:00
1:53 AM,73.9,64.9,73,30.03,10.0,ESE,9.2,-,N/A,,Partly Cloudy,120,2013-03-22 11:53:00
2:53 AM,73.0,64.0,73,29.99,10.0,SE,6.9,-,N/A,,Clear,130,2013-03-22 12:53:00
3:53 AM,73.0,63.0,71,29.98,10.0,ESE,8.1,-,N/A,,Partly Cloudy,120,2013-03-22 13:53:00
4:53 AM,72.0,62.1,71,29.97,10.0,SE,8.1,-,N/A,,Clear,130,2013-03-22 14:53:00
5:53 AM,73.0,63.0,71,29.98,10.0,SE,8.1,-,N/A,,Partly Cloudy,140,2013-03-22 15:53:00
6:51 AM,73.4,64.4,73,30.02,10.0,ESE,3.5,-,N/A,,Mostly Cloudy,110,2013-03-22 16:51:00
6:53 AM,73.0,64.0,73,30.02,10.0,East,4.6,-,N/A,,Mostly Cloudy,100,2013-03-22 16:53:00
7:53 AM,75.9,66.9,74,30.02,10.0,East,3.5,-,N/A,,Partly Cloudy,100,2013-03-22 17:53:00
8:21 AM,75.2,66.2,73,30.03,10.0,Calm,Calm,-,N/A,,Mostly Cloudy,0,2013-03-22 18:21:00
8:28 AM,75.2,66.2,73,30.03,10.0,Calm,Calm,-,N/A,,Partly Cloudy,0,2013-03-22 18:28:00
8:53 AM,77.0,66.9,71,30.03,10.0,NW,3.5,-,N/A,,Partly Cloudy,320,2013-03-22 18:53:00
9:53 AM,79.0,68.0,69,30.02,10.0,NNW,10.4,-,N/A,,Clear,340,2013-03-22 19:53:00
10:53 AM,79.0,66.9,66,30.02,10.0,NNW,10.4,-,N/A,,Clear,330,2013-03-22 20:53:00
11:53 AM,79.0,68.0,69,30.01,10.0,NNW,8.1,-,N/A,,Partly Cloudy,330,2013-03-22 21:53:00
12:53 PM,79.0,66.9,66,29.98,10.0,NNW,8.1,-,N/A,,Clear,340,2013-03-22 22:53:00
1:53 PM,80.1,66.9,64,29.96,10.0,NNW,10.4,-,N/A,,Clear,340,2013-03-22 23:53:00
2:53 PM,81.0,66.9,62,29.94,10.0,NNW,11.5,-,N/A,,Clear,330,2013-03-23 00:53:00
3:53 PM,79.0,66.9,66,29.93,10.0,NNW,11.5,-,N/A,,Clear,330,2013-03-23 01:53:00
4:53 PM,79.0,66.9,66,29.94,10.0,NNW,13.8,-,N/A,,Partly Cloudy,330,2013-03-23 02:53:00
5:53 PM,77.0,66.0,69,29.95,10.0,NNW,10.4,-,N/A,,Partly Cloudy,340,2013-03-23 03:53:00
6:53 PM,77.0,66.0,69,29.96,10.0,NNW,10.4,-,N/A,,Mostly Cloudy,340,2013-03-23 04:53:00
7:53 PM,75.9,66.0,71,29.97,10.0,North,12.7,-,N/A,,Mostly Cloudy,360,2013-03-23 05:53:00
8:53 PM,75.0,66.0,73,29.98,10.0,North,12.7,-,N/A,,Partly Cloudy,10,2013-03-23 06:53:00
9:53 PM,75.0,66.9,76,29.99,10.0,North,13.8,-,N/A,,Scattered Clouds,10,2013-03-23 07:53:00
10:53 PM,75.0,66.0,73,29.99,10.0,North,11.5,-,N/A,,Partly Cloudy,10,2013-03-23 08:53:00
11:53 PM,73.9,64.9,73,29.99,10.0,NE,6.9,-,N/A,,Clear,50,2013-03-23 09:53:00